Regional Weather Roundup
Issued by NWS New Orleans/Baton Rouge, LA

Home | Current Version | Previous Version | Graphics & Text | Print | Product List | Glossary On
Versions: 1 2 3 4 5 6 7 8 9 10 11 12 13 14 15 16 17 18 19 20 21 22 23 24 25 26 27 28 29 30 31 32 33 34 35 36 37 38 39 40 41 42 43 44 45 46 47 48 49 50
808
ASUS44 KLIX 010301
RWRLIX
NEW ORLEANS REGIONAL WEATHER ROUNDUP
NATIONAL WEATHER SERVICE NEW ORLEANS LA
1000 PM CDT TUE SEP 30 2014

NOTE: "FAIR" INDICATES FEW OR NO CLOUDS BELOW 12,000 FEET WITH NO
      SIGNIFICANT WEATHER AND/OR OBSTRUCTIONS TO VISIBILITY.
      SKY/WX - SKY CONDITION AND SIGNIFICANT WEATHER.
      TMP - AIR TEMPERATURE.     DP    - DEWPOINT TEMPERATURE.
      RH  - RELATIVE HUMIDITY.   PRES  - PRESSURE.
      HI  - HEAT INDEX.          WCI   - WIND CHILL INDEX.

*  THESE STATIONS ARE NOT NWS OR FAA STATIONS AND ARE NOT UNDER
   NWS QUALITY CONTROL.

LAZ038-040-048-061>063-065>067-069-010400-
SOUTHEAST LOUISIANA

CITY           SKY/WX    TMP DP  RH WIND       PRES   REMARKS
N.O. AUDUBON     N/A     79  75  90 MISG        N/A
N.O. INTL ARPT PTCLDY    78  72  81 SE8       29.87S
N.O. LAKEFRONT CLEAR     77  72  84 SE8       29.88S
N.O. DOWNTOWN*   N/A     79  70  73 SE6       29.89S
SLIDELL        CLEAR     73  70  90 CALM      29.88S
BATON ROUGE    CLEAR     76  70  82 SE6       29.87R
BOOTHVILLE     CLEAR     77  74  90 SE5       29.89R
BELLE CHASSE   PTCLDY    77  71  82 E5        29.88S
BOGALUSA*        N/A     76  71  85 CALM      29.90S
GALLIANO*      NOT AVBL
NEW ROADS*       N/A     77  70  79 E3        29.86R
GONZALES*        N/A     77  77 100 CALM      29.87R
HAMMOND*       NOT AVBL
HOUMA*         PTCLDY   N/A N/A N/A E5        29.87S
PORT FOURCHON* PTCLDY    81  73  78 E10       29.90F

$$

MSZ070-080>082-010400-
SOUTHERN MISSISSIPPI

CITY           SKY/WX    TMP DP  RH WIND       PRES   REMARKS
MCCOMB         CLEAR     74  70  87 SE5       29.90R
GULFPORT       CLEAR     76  70  82 SE5       29.88S
BILOXI         CLEAR     78  71  79 E6        29.89R
PASCAGOULA     CLEAR     69  67  93 CALM      29.89S

$$

COASTAL OBSERVATIONS
LAKE AND NEARSHORE STATIONS

STATION/POSITION TIME  TEMP    WIND        PRES    WAVE
                       AIR SEA DIR/SP/G            HT/PER
                 (UTC) (F)     (DEG/KT/KT) (MB)    (FT/S)
PASCAGOULA       0200   79      90/  6/  8 1011.7
WAVELAND YACHT   0200   78     140/  7/ 10 1011.4
GRAND ISLE       0200   79 83  120/  5/  9 1012.3
SOUTHWEST PASS   0200   80 86  100/ 15/ 16 1012.0
NEW CANAL        0200   78 78   CALM  /  4 1012.2
SHELL BEACH      0200   77 76  120/  6/  8 1011.9

OFFSHORE STATIONS

STATION/POSITION TIME  TEMP    WIND        PRES    WAVE
                       AIR SEA DIR/SP/G            HT/PER
                 (UTC) (F)     (DEG/KT/KT) (MB)    (FT/S)
64 S DAUPHIN ISL 0225   79 82   90/ 12/ 14 1012.4    2/ 5

$$




USA.gov is the U.S. government's official web portal to all federal, state and local government web resources and services.